NOAA NWS Hourly Roundups by Site

Regional Weather Roundup for Omaha, NE

To Select Another Site Choose from List

Select Site:  

000
ASUS43 KOAX 261510
RWRNE

WEATHER ROUNDUP FOR NEBRASKA
NATIONAL WEATHER SERVICE OMAHA NE
1000 AM CDT FRI APR 26 2019

NOTES: SATELLITE DATA IS BEING USED TO AUGMENT CLOUD COVER ABOVE
       12000 FEET.
       "FAIR" INDICATES FEW OR NO CLOUDS BELOW 12,000 FEET WITH NO
       SIGNIFICANT WEATHER AND/OR OBSTRUCTIONS TO VISIBILITY.


NEZ001>004-019>022-054>056-261600-
NEBRASKA PANHANDLE

CITY           SKY/WX    TMP DP  RH WIND       PRES   REMARKS
SCOTTSBLUFF    FAIR      49  38  65 SE15      29.97F
ALLIANCE       FAIR      52  37  56 SE25G35   30.00F
CHADRON        FAIR      51  36  56 SE9G16    29.98F
GORDON         FAIR      50  27  41 SE18G25   30.03F
KIMBALL        FAIR      53  34  48 S15       30.00F
SIDNEY         FAIR      53  35  50 S24       30.00F
$$

NEZ057>060-069>072-079>082-261600-
SOUTHWEST NEBRASKA

CITY           SKY/WX    TMP DP  RH WIND       PRES   REMARKS
NORTH PLATTE   FAIR      54  32  43 SE14      30.11F
IMPERIAL       FAIR      56  31  38 SE28G36   30.07F
LEXINGTON      FAIR      53  31  42 E14       30.15F
MCCOOK         FAIR      56  36  47 SE16      30.13F
OGALLALA       FAIR      56  34  44 SE17G24   30.06F
$$

NEZ005>010-023>029-035>040-094-261600-
NORTH CENTRAL NEBRASKA

CITY           SKY/WX    TMP DP  RH WIND       PRES   REMARKS
VALENTINE      FAIR      52  22  30 MISG      30.11F
AINSWORTH      PTSUNNY   46  29  51 SE12      30.13F
BROKEN BOW     FAIR      51  30  44 SE12      30.15F
O`NEILL        CLOUDY    50  31  47 S3        30.17S
ORD            PTSUNNY   50  32  50 SE6       30.16F
THEDFORD       FAIR      51  24  34 SE20      30.11F
$$

NEZ041-046>049-061>064-073>077-083>087-261600-
SOUTH CENTRAL NEBRASKA

CITY           SKY/WX    TMP DP  RH WIND       PRES   REMARKS
GRAND ISLAND   PTSUNNY   50  29  44 E8        30.19F
AURORA         CLOUDY    52  26  35 E10       30.18F
HASTINGS       FAIR      54  27  35 E10       30.18F
HEBRON         PTSUNNY   56  26  31 SE6       30.19S
HOLDREGE       FAIR      54  28  36 E17       30.15F
KEARNEY        FAIR      53  26  35 E14       30.17F
YORK           FAIR      54  28  37 CALM      30.19S
$$

NEZ011>018-030>034-042>045-261600-
NORTHEAST NEBRASKA

CITY           SKY/WX    TMP DP  RH WIND       PRES   REMARKS
NORFOLK        FAIR      52  27  38 NE7       30.15F
ALBION         PTSUNNY   51  30  45 E6        30.18S
BLAIR          FAIR      53  27  37 N12       30.16R
COLUMBUS       FAIR      53  27  36 NE10      30.18F
FREMONT        FAIR      55  28  34 N7        30.17F
TEKAMAH        FAIR      55  30  38 N9        30.16S
WAYNE          FAIR      51  23  32 N6        30.17S
$$

NEZ050>053-065>068-078-088>093-261600-
SOUTHEAST NEBRASKA

CITY           SKY/WX    TMP DP  RH WIND       PRES   REMARKS
LINCOLN        FAIR      56  27  32 N13       30.19F
OMAHA EPPLEY   FAIR      54  32  43 NW13      30.17R
BEATRICE       FAIR      56  31  38 NE8       30.18R
FALLS CITY     FAIR      57  28  33 VRB7G17   30.17R
NEBRASKA CITY  FAIR      55  24  30 N14       30.18R
PLATTSMOUTH    FAIR      55  28  36 N9        30.17R
$$

NEZ044-045-051>053-067-261600-
OMAHA AREA

CITY           SKY/WX    TMP DP  RH WIND       PRES   REMARKS
OMAHA EPPLEY   FAIR      54  32  43 NW13      30.17R
BLAIR          FAIR      53  27  37 N12       30.16R
FREMONT        FAIR      55  28  34 N7        30.17F
MILLARD        FAIR      56  28  34 N7        30.17R
OFFUTT AFB     SUNNY     55  27  33 NW8       30.16R
PLATTSMOUTH    FAIR      55  28  36 N9        30.17R
WAHOO          FAIR      55  26  32 N13       30.17F
$$


 

View Past Reports for Omaha, NE.

Products Courtesy of NOAA-NWS
NWS Information Parsing Script by Ken True at Saratoga Weather - Script by SE Lincoln Weather.